Location: Endfield
(51.6667°N, 0.0667°W)
Time: 05:02:34
(UTC+00:00)

Meteor 2-9 Rocket - Pass Details

Date: 19 May 2024
Orbit: 792 x 893 km, 81.3° (Epoch: 19 June)

Event Time Altitude Azimuth Distance (km) Brightness Sun altitude
Rises 22:02:40 0° 347° (NNW) 3,468 9.0 -14.1°
Reaches altitude 10° 22:05:06 10° 348° (NNW) 2,539 8.0 -14.3°
Maximum altitude 22:10:55 85° 77° (ENE) 897 4.3 -14.7°
Enters shadow 22:14:55 22° 166° (SSE) 1,867 5.4 -14.9°
